Tracking 19795 objects as of 18-Jul-2019
HD Live streaming from Space Station
objects crossing your sky now

SL-6 R/B(2)


SL-6 R/B(2) is no longer on orbit


NORAD ID: 25382
Int'l Code: 1998-040D
Perigee: N/A
Apogee: N/A
Inclination: N/A
Period: N/A
Semi major axis: N/A
RCS: N/A
Launch date: July 1, 1998
Source: Commonwealth of Independent States (former USSR) (CIS)
Launch site: PLESETSK MISSILE AND SPACE COMPLEX (PKMTR)
Decay date: 2011-05-19

Note: This is a ROCKET BODY
aabbcc
Your satellite tracking list
Your tracking list is empty




NASA's NSSDC Master Catalog

Two Line Element Set (TLE):
1 25382U 98040D   11139.26995049  .36946844  76011-5  10000-3 0  9998
2 25382 063.3453 264.7132 0148239 250.6334 181.5967 16.36036551 96885
Source of the keplerian elements: AFSPC